Other Public Products
Issued by NWS Grand Forks, ND

Home | Current Version | Previous Version | Graphics & Text | Print | Product List | Glossary On
Versions: 1 2 3 4 5 6 7 8 9 10 11 12 13 14 15 16 17 18 19 20 21 22 23 24 25 26 27 28 29 30 31 32 33 34 35 36 37 38 39 40 41 42 43 44 45 46 47 48 49 50
000
FPUS83 KFGF 211310
OPUFGF
PRAIRIE TO PINES WEATHER ROUNDUP
NATIONAL WEATHER SERVICE EASTERN NORTH DAKOTA/GRAND FORKS ND
800 AM CDT MON MAY 21 2018

 **SATELLITE DATA USED TO AUGMENT SKY COVER AT AUTOMATED STATIONS**
 *****  WEATHER ACROSS EASTERN NORTH DAKOTA  *****

CITY           SKY/WX    TMP DP  RH WIND       PRES   REMARKS
GRAND FORKS    FAIR      54  42  64 S6        30.08S
GRND FORKS AFB NOT AVBL
GRND FORKS NWS   N/A     56  40  55 S10       30.06S
BUXTON           N/A     53  44  71 SE3         N/A
DEVILS LAKE    FAIR      54  44  69 SE7       30.08S
FARGO          FAIR      55  43  63 CALM      30.07F
WAHPETON ARPT  PTSUNNY   55  36  47 E3        30.08S
$$

 *****  WEATHER ACROSS CENTRAL AND WESTERN NORTH DAKOTA  *****

CITY           SKY/WX    TMP DP  RH WIND       PRES   REMARKS
JAMESTOWN      FAIR      54  42  64 E5        30.05F
BISMARCK       FAIR      47  42  83 E5        30.04F
MINOT          FAIR      50  37  61 SE5       30.01F
MINOT AFB      NOT AVBL
GARRISON         N/A     49  39  68 SE5       30.02S
WILLISTON      FAIR      55  38  52 S8        29.97S
DICKINSON      FAIR      46  39  76 S8        29.99R
HETTINGER      FAIR      47  38  71 SE7       30.02S
$$

 *****  OTHER OBSERVATIONS NORTHEAST NORTH DAKOTA  *****

CITY           SKY/WX    TMP DP  RH WIND       PRES   REMARKS
WALHALLA       NOT AVBL
LANGDON        FAIR      55  43  62 S7        30.08
CAVALIER       NOT AVBL
GRAFTON        NOT AVBL
CANDO          NOT AVBL
FORT TOTTEN      N/A     57  35  44 SE7       29.95S
ROLLA          FAIR      55  37  50 S7        30.07
RUGBY          NOT AVBL
 ***** THE ABOVE OBSERVATIONS ARE NON NWS ARE NOT QUALITY
        CONTROLLED AND MAY MIS-REPORT RAIN FOR SNOW...
$$

 *****  OTHER OBSERVATIONS SOUTHEAST NORTH DAKOTA *****

CITY           SKY/WX    TMP DP  RH WIND       PRES   REMARKS
COOPERSTOWN    NOT AVBL
VALLEY CITY    FAIR      55  39  54 CALM      30.08
OAKES            N/A     55  43  62 CALM      30.06
GWINNER          N/A     55  37  50 CALM      30.06
SHEYENNE NWR     N/A     57  41  55 E7        29.95S
BUFFALO          N/A     54  34  46 W6          N/A
WYNDMERE       NOT AVBL
 ***** THE ABOVE OBSERVATIONS ARE NON NWS ARE NOT QUALITY
       CONTROLLED AND MAY MIS-REPORT RAIN FOR SNOW...
$$

  *****  WEATHER ACROSS NORTHERN MINNESOTA  *****

CITY           SKY/WX    TMP DP  RH WIND       PRES   REMARKS
FLAG ISLAND    FAIR      54  43  66 SE3       30.11S
WARROAD        FAIR      55  43  62 CALM      30.12S
ROSEAU         FAIR      50  43  76 CALM      30.11S
HALLOCK        FAIR      55  41  58 SE7       30.08F
THF RVR FALLS  FAIR      57  39  51 SE5       30.12S
HALSTAD        NOT AVBL
FOSSTON        FAIR      57  37  47 CALM      30.11F
BAUDETTE       FAIR      53  44  71 S3        30.13S
WASKISH        CLOUDY    55  39  54 CALM      30.13S
CROOKSTON      FAIR      57  39  51 S6        30.10S
$$
  *****  WEATHER ACROSS CENTRAL AND WEST MINNESOTA  *****

CITY           SKY/WX    TMP DP  RH WIND       PRES   REMARKS
BEMIDJI        FAIR      52  44  74 CALM      30.13S
PARK RAPIDS    FAIR      53  40  61 E5        30.11S
WADENA         FAIR      48  37  66 CALM      30.10S
DETROIT LAKES  FAIR      55  36  47 CALM      30.11S
MOORHEAD       FAIR      55  37  50 E5        30.09S
FERGUS FALLS   PTSUNNY   57  37  47 E5        30.05S
ELBOW LAKE     CLOUDY    56  40  56 SE8       30.08S
MORRIS MN      CLOUDY    57  43  58 E8        30.07S
STAPLES        PTSUNNY   52  37  58 E3        30.10F
WHEATON        PTSUNNY   57  39  51 E3        30.08F
$$
  *****  WEATHER ELSEWHERE ACROSS MINNESOTA  *****

CITY           SKY/WX    TMP DP  RH WIND       PRES   REMARKS
DULUTH         FAIR      57  37  47 CALM      30.15F
INTRNTL FALLS  FAIR      56  39  53 S3        30.14S
ELY            FAIR      52  37  58 CALM      30.17S
CLOQUET        FAIR      54  34  47 CALM      30.15S
BRAINERD       FAIR      60  42  51 SE7       30.12F
HIBBING        FAIR      48  38  68 CALM      30.15F
ALEXANDRIA     CLOUDY    55  43  63 E6        30.10S
SAINT CLOUD    LGT RAIN  53  45  74 E6        30.10S
MINNEAPOLIS    CLOUDY    61  49  64 E13       30.09F
$$

  *****  WEATHER ACROSS SOUTH DAKOTA  *****

CITY           SKY/WX    TMP DP  RH WIND       PRES   REMARKS
SIOUX FALLS    CLOUDY    56  55  97 E6        30.04S FOG
BROOKINGS      CLOUDY    55  54  96 SE8       30.05S FOG
WATERTOWN      CLOUDY    55  55 100 S3        30.05R
HURON          CLOUDY    56  53  90 CALM      30.04R
SISSETON         N/A     56  44  64 CALM      30.05S
ABERDEEN       CLOUDY    58  54  86 E7        30.05S
MITCHELL       CLOUDY    55  53  93 S3        30.05S FOG
PIERRE         FAIR      52  45  77 S5        30.03R
MOBRIDGE       FAIR      57  45  64 W3        30.01R
RAPID CITY     FAIR      44  41  89 SE9       29.99F
$$

  *****  SOME WEATHER IN NEARBY STATES *****

CITY           SKY/WX    TMP DP  RH WIND       PRES   REMARKS
GLASGOW MT     FAIR      52  43  71 E13       29.88S
GREAT FALLS MT FAIR      53  47  79 SW7       29.91R
CHEYENNE WY    FAIR      45  41  86 W9        30.04R
SCOTTSBLUFF NE FAIR      49  47  93 E8        30.02R
OMAHA NE       CLOUDY    57  56  96 NW5       30.05R FOG
DES MOINES IA  CLOUDY    59  57  93 E5        30.02R FOG
DAVENPORT IA   CLOUDY    54  52  93 SE13      30.10R
CHICAGO IL     RAIN      51  49  92 E3        30.12F
EAU CLAIRE WI  CLOUDY    52  42  69 E7        30.13S
LA CROSSE WI   CLOUDY    58  44  60 E6        30.11S
$$

  *****  SOME NATIONAL WEATHER *****

CITY           SKY/WX    TMP DP  RH WIND       PRES   REMARKS
LA GUARDIA NY  FAIR      66  49  54 N10       30.19S
RALEIGH NC     PTSUNNY   74  69  85 W7        30.16R
ATLANTA GA     PTSUNNY   72  65  78 E6        30.18R
NEW ORLEANS LA PTSUNNY   80  74  81 CALM      30.03R
OKLAHOMA CITY  FAIR      62  59  90 NE8       30.08S
ALBUQUERQUE NM CLOUDY    62  49  62 E17       30.08R
SALT LAKE CITY FAIR      56  47  71 NW3       29.90R
LOS ANGELES CA CLOUDY    60  52  74 SW3       29.85S
BOISE ID       FAIR      54  52  93 CALM      29.92S
SEATTLE WA     CLOUDY    54  48  80 N6        30.07R
$$

*** WEATHER ACROSS MANITOBA...SASKATCHEWAN AND ONTARIO ***
                ***ONTARIO***

CITY           SKY/WX    TMP DP  RH WIND       PRES   REMARKS
GERALDTON      MOSUNNY   63  36  36 W8        30.13S
THUNDER BAY    MOSUNNY   57  37  47 VRB2      30.17S
SIOUX LOOKOUT  MOSUNNY   57  36  44 S3        30.12F
TORONTO        PTSUNNY   55  36  47 N6        30.25S
BIG TROUT LK   SUNNY     46  34  61 SE6       30.01F
PICKLE LAKE    MOSUNNY   59  37  44 W6        30.06R
DRYDEN         SUNNY     57  37  47 SW6       30.12F
KENORA         MOSUNNY   55  41  58 S7        30.12R
$$
                *** MANITOBA***

CITY           SKY/WX    TMP DP  RH WIND       PRES   REMARKS
BRANDON        MOSUNNY   54  37  54 SW3       30.04S
DAUPHIN        SUNNY     61  36  39 W6        29.99F
ISLAND LAKE    MOSUNNY   55  39  54 S3        29.92F
PILOT MOUND      N/A     54  39  58 S5          N/A
THE PAS        SUNNY     61  36  39 S9        29.86F
THOMPSON       PTSUNNY   43  34  70 E6        29.89S
WINNIPEG       SUNNY     59  39  47 S6        30.07S
LYNN LAKE      MOSUNNY   43  34  70 E9        29.85S
CHURCHILL      CLOUDY    23  18  80 NE6       30.15S WCI  16
GILLAM         PTSUNNY   32  23  69 E10G20    30.01S WCI  24
$$
                ***SASKATCHEWAN***

CITY           SKY/WX    TMP DP  RH WIND       PRES   REMARKS
ESTEVAN        MOSUNNY   55  34  44 SE12      29.97F
KINDERSLEY     MOSUNNY   54  45  71 SW9       29.77S
LLOYDMINSTER   MOSUNNY   54  45  71 W7        29.77R
PRINCE ALBERT  MOSUNNY   61  39  44 S8        29.80S
REGINA         MOSUNNY   52  34  50 SE15      29.91S
YORKTON        SUNNY     55  36  47 S12       29.95S


USA.gov is the U.S. government's official web portal to all federal, state and local government web resources and services.